{"data":{"norad_id":66154,"epoch":"2026-09-20T08:30:27.986112Z","epoch_age_seconds":112957,"freshness":"FRESH","line1":"1 66154U 25240J   26263.35449058  .00009673  00000+0  29700-3 0  9997","line2":"2 66154  53.1561 236.4093 0001233  90.2852 269.8292 15.34406668 51879","mean_motion":15.34406668,"eccentricity":0.0001233,"inclination_deg":53.1561,"raan_deg":236.4093,"arg_perigee_deg":90.2852,"mean_anomaly_deg":269.8292,"bstar":0.000297,"rev_number":5187,"period_min":93.847350251478,"perigee_km":461.83994841968,"apogee_km":463.52689473564,"semimajor_km":6840.8204215777,"source":"CELESTRAK","updated_at":"2026-09-21T09:00:35.813794Z"}}